Location: Helsinki
(60.1699°N, 24.9384°E)
Time: 11:54:45
(UTC+02:00)

Transit 2A Rocket - Pass Details

Date: 23 September 2023
Orbit: 593 x 903 km, 66.7° (Epoch: 06 December)

Event Time Altitude Azimuth Distance (km) Brightness Sun altitude
Rises 22:06:43 0° 300° (WNW) 3,109 9.7 -20.2°
Reaches altitude 10° 22:09:13 10° 305° (NW) 2,138 8.5 -20.5°
Maximum altitude 22:13:54 49° 21° (NNE) 840 5.3 -20.9°
Enters shadow 22:15:21 35° 71° (ENE) 1,028 5.4 -21.0°
Drops below altitude 10° 22:18:14 10° 97° (E) 1,987 - -21.3°
Sets 22:20:29 0° 103° (ESE) 2,866 - -21.5°
